Location: ???
(35.5616°N, 139.7977°E)
Time: 11:03:26
(UTC+00:00)

Daily predictions for brighter satellites

Satellite Brightness Start Highest point End
(mag) Time Altitude Azimuth Time Altitude Azimuth Time Altitude Azimuth
USA 267 4.0 18:04:13 10° NE 18:09:14 49° E 18:09:14 49° E
ATLAS 3B R/B 3.8 18:09:37 39° SE 18:11:14 45° ESE 18:18:30 10° NE
SJ 16-02 3.3 18:39:41 26° E 18:39:41 26° E 18:42:44 10° SE
CZ-3 R/B 3.3 18:43:42 34° WSW 18:52:15 57° S 18:59:33 10° E
Cosmos 1190 Rocket 3.9 19:04:35 78° NNE 19:04:51 81° ENE 19:10:02 10° SSE
Cosmos 1869 4.1 19:16:20 43° ESE 19:16:20 43° ESE 19:19:07 10° SSE
Cosmos 1954 Rocket 3.9 19:16:13 48° NNW 19:17:43 85° ENE 19:22:50 10° SSE
Cosmos 2233 Rocket 3.8 19:14:29 10° N 19:20:46 73° W 19:26:55 10° S
Cosmos 2346 Rocket 4.3 19:14:45 10° S 19:20:53 81° W 19:26:59 10° N
Cosmos 1447 Rocket 4.4 19:15:30 10° S 19:21:44 84° W 19:28:05 10° N
Cosmos 1725 Rocket 4.3 19:22:40 44° WSW 19:22:40 44° WSW 19:27:41 10° SSW
Cosmos 2061 Rocket 3.8 19:17:17 10° N 19:23:29 78° W 19:29:41 10° S
SL-16 R/B 4.2 19:18:35 10° SSW 19:20:03 17° SSW 19:20:03 17° SSW
SL-16 R/B 2.2 19:24:44 53° WNW 19:24:53 53° WNW 19:30:27 10° NNE
Chandra Rocket (1) 3.6 19:29:04 30° SW 19:30:57 40° S 19:42:37 10° ESE
Cosmos 1812 3.0 19:32:30 45° E 19:32:30 45° E 19:35:03 10° SSE
SJ-11-01 4.2 19:27:35 10° NNE 19:32:18 89° WNW 19:37:00 10° SSW
Atlas 2A Centaur Rocket 3.5 19:32:33 23° SSW 19:33:27 25° SSW 19:35:52 10° SE
Cosmos 1378 Rocket 3.5 19:31:27 10° S 19:35:42 79° E 19:39:58 10° N
IRS-1D 3.5 19:31:21 10° NNE 19:36:17 79° ESE 19:41:13 10° S
USA 229 DEB 3.7 19:41:03 35° W 19:42:46 44° NW 19:48:53 10° NNE
USA 229 3.6 19:41:13 35° W 19:43:00 44° NW 19:49:06 10° NNE
Cosmos 1110 Rocket 3.9 19:39:39 10° SSW 19:44:54 72° WNW 19:50:13 10° NNE
USA 267 3.8 19:47:29 10° NNE 19:53:25 39° NW 19:56:36 24° W
Cosmos 2242 Rocket 4.1 19:51:55 10° SW 19:55:55 35° W 19:59:58 10° NNW
OAO 1 4.5 19:56:07 27° W 19:59:07 87° S 20:04:36 10° E
SL-8 R/B 4.5 19:57:02 10° SSW 20:01:38 51° SE 20:06:14 10° ENE
ATLAS 3B R/B 3.4 19:57:00 18° WSW 20:02:04 39° NW 20:09:19 10° NNE
CENTAUR R/B 3.6 19:57:24 10° NNW 20:06:09 75° ENE 20:15:40 10° SE
Lacrosse 4 Rocket 4.0 20:06:54 10° NNE 20:08:43 13° NE 20:10:33 10° E
COSMO-SKYMED 1 2.7 20:05:43 10° SSE 20:09:48 71° ENE 20:13:54 10° N
SWARM A 4.3 20:09:05 10° SSW 20:12:18 50° W 20:15:31 10° N
Cosmos 1943 3.2 20:07:10 10° SSW 20:12:42 61° WNW 20:18:15 10° NNE
Cosmos 1818 3.5 20:07:18 10° SSW 20:12:42 83° WNW 20:18:10 10° NNE
Aureole 3 Rocket 4.4 20:06:47 10° NNW 20:12:48 59° W 20:20:57 10° S
Meteor 1-11 4.2 20:08:43 10° SSW 20:14:32 70° W 20:20:22 10° N
Cosmos 2297 3.6 20:11:19 10° NNW 20:16:57 78° WSW 20:22:33 10° SSE
Cosmos 371 Rocket 4.2 20:14:22 18° NW 20:16:59 28° W 20:21:03 10° SSW
SJ 16-02 2.5 20:16:18 20° W 20:17:01 20° W 20:20:10 10° SW
Cosmos 2369 Rocket 2.2 20:11:34 10° NNW 20:17:16 75° WSW 20:22:56 10° SSE
Cosmos 1603 4.1 20:13:18 10° S 20:18:59 70° ESE 20:24:42 10° NNE
Cosmos 1452 Rocket 3.8 20:16:36 10° SW 20:21:35 44° WNW 20:26:35 10° N
NOAA 12 4.4 20:19:50 10° N 20:24:50 43° WNW 20:29:48 10° SW
Hubble Space Telescope 3.0 20:23:01 10° SSW 20:25:43 18° SSE 20:28:25 10° ESE
USA 234 3.8 20:20:03 10° ESE 20:26:26 58° NE 20:32:50 10° NW
Lacrosse 5 rocket 3.0 20:24:46 10° N 20:27:18 20° NE 20:29:48 10° E
Meteor 2-17 Rocket 4.5 20:25:44 10° SSW 20:31:40 58° W 20:37:40 10° N
Cosmos 1850 Rocket 3.9 20:26:39 10° NNW 20:31:48 73° WSW 20:36:57 10° S
Cosmos 1025 Rocket 3.3 20:29:12 10° SSW 20:33:20 43° W 20:37:30 10° N
Helios 1A Rocket 2.9 20:30:12 10° S 20:33:22 39° W 20:36:33 10° NNW
Cosmos 1484 Rocket 2.5 20:33:02 10° N 20:36:30 57° WNW 20:39:54 10° SSW
SKYMED 2 4.2 20:33:57 10° SSW 20:37:53 34° W 20:41:52 10° NNW
Okean 2 Rocket 3.2 20:34:55 10° NNW 20:39:11 54° W 20:43:26 10° S
H-2A R/B 3.8 20:41:10 10° WSW 20:43:56 28° S 20:52:00 10° ESE
Cosmos 332 Rocket 3.9 20:42:02 10° NNW 20:46:43 56° WSW 20:51:20 10° S
Centaur D AC-28 3.9 20:33:43 10° W 20:48:13 37° SSW 20:52:34 10° SE
Tsikada Rocket 4.1 20:48:31 10° S 20:54:49 78° W 21:01:15 10° N
CBERS-1 4.1 20:51:55 10° N 20:56:57 60° WNW 21:01:57 10° SSW
